LKN570 WADD-WAAA

Flight info

Callsign LKN570
Flight time 0h 58m
Altitude 35000
Route PEDET3A/09 PEDET W41 LIPOT
Aircraft B735/M-EQUIPMENTSDGRS/S

Departure

Time 2026-04-22 12:20
Airport Denpasar I Gusti Ngurah Rai International Airport (WADD)

Arrival

Time 2026-04-22 13:18
Airport Sultan Hasanuddin International Airport (WAAA)
Time Latitude Longitude Altitude Speed Heading
2026-04-22 11:35 -8.74566 115.16274 33 ft 0 kts 358°
2026-04-22 12:09 -8.74567 115.16274 33 ft 1 kts 358°
2026-04-22 12:10 -8.74591 115.16275 32 ft 4 kts 358°
2026-04-22 12:10 -8.74612 115.16276 33 ft 4 kts 358°
2026-04-22 12:10 -8.74639 115.16277 30 ft 4 kts 358°
2026-04-22 12:10 -8.74665 115.16278 31 ft 3 kts 357°
2026-04-22 12:11 -8.74689 115.16283 32 ft 4 kts 320°
2026-04-22 12:11 -8.74700 115.16303 29 ft 4 kts 264°
2026-04-22 12:11 -8.74696 115.16329 31 ft 2 kts 267°
2026-04-22 12:11 -8.74696 115.16331 31 ft 0 kts 268°
2026-04-22 12:14 -8.74696 115.16307 29 ft 6 kts 270°
2026-04-22 12:15 -8.74697 115.16278 30 ft 7 kts 268°
2026-04-22 12:15 -8.74699 115.16226 33 ft 8 kts 267°
2026-04-22 12:15 -8.74702 115.16170 33 ft 8 kts 268°
2026-04-22 12:15 -8.74704 115.16114 33 ft 8 kts 268°
2026-04-22 12:16 -8.74706 115.16056 33 ft 8 kts 268°
2026-04-22 12:16 -8.74708 115.15997 33 ft 8 kts 267°
2026-04-22 12:16 -8.74711 115.15935 33 ft 9 kts 267°
2026-04-22 12:16 -8.74714 115.15872 33 ft 9 kts 268°
2026-04-22 12:17 -8.74716 115.15808 33 ft 9 kts 268°
2026-04-22 12:17 -8.74719 115.15740 33 ft 11 kts 268°
2026-04-22 12:17 -8.74723 115.15647 32 ft 15 kts 268°
2026-04-22 12:17 -8.74727 115.15542 31 ft 14 kts 268°
2026-04-22 12:18 -8.74730 115.15454 32 ft 12 kts 268°
2026-04-22 12:18 -8.74766 115.15396 32 ft 10 kts 205°
2026-04-22 12:18 -8.74838 115.15392 28 ft 12 kts 179°
2026-04-22 12:18 -8.74896 115.15405 29 ft 6 kts 127°
2026-04-22 12:19 -8.74897 115.15436 29 ft 0 kts 87°
2026-04-22 12:19 -8.74897 115.15437 29 ft 0 kts 87°
2026-04-22 12:19 -8.74896 115.15444 29 ft 4 kts 87°
2026-04-22 12:19 -8.74893 115.15547 29 ft 40 kts 87°
2026-04-22 12:20 -8.74869 115.16091 29 ft 115 kts 87°
2026-04-22 12:20 -8.74826 115.17140 205 ft 174 kts 87°
2026-04-22 12:20 -8.74801 115.18393 1001 ft 182 kts 88°
2026-04-22 12:20 -8.74805 115.19676 1756 ft 192 kts 88°
2026-04-22 12:21 -8.74771 115.21092 2453 ft 211 kts 86°
2026-04-22 12:21 -8.74716 115.22634 3162 ft 225 kts 86°
2026-04-22 12:21 -8.74656 115.24325 3513 ft 254 kts 87°
2026-04-22 12:21 -8.74595 115.26123 4587 ft 260 kts 87°
2026-04-22 12:22 -8.74531 115.27992 5545 ft 271 kts 87°
2026-04-22 12:22 -8.74465 115.29911 6634 ft 275 kts 87°
2026-04-22 12:22 -8.74398 115.31871 7710 ft 281 kts 87°
2026-04-22 12:22 -8.74327 115.33900 8439 ft 294 kts 87°
2026-04-22 12:23 -8.74256 115.35959 8736 ft 292 kts 87°
2026-04-22 12:23 -8.74182 115.38014 8943 ft 292 kts 86°
2026-04-22 12:23 -8.74087 115.40090 9256 ft 299 kts 86°
2026-04-22 12:23 -8.73980 115.42148 9686 ft 290 kts 86°
2026-04-22 12:24 -8.73874 115.44161 9366 ft 287 kts 86°
2026-04-22 12:24 -8.73765 115.46198 9030 ft 293 kts 86°
2026-04-22 12:24 -8.73656 115.48206 9210 ft 301 kts 85°
2026-04-22 12:24 -8.73329 115.50325 10017 ft 307 kts 71°
2026-04-22 12:25 -8.72375 115.52143 11126 ft 306 kts 52°
2026-04-22 12:25 -8.70926 115.53728 12205 ft 308 kts 43°
2026-04-22 12:25 -8.69396 115.55168 12805 ft 298 kts 42°
2026-04-22 12:25 -8.67899 115.56598 12336 ft 297 kts 44°
2026-04-22 12:26 -8.66461 115.58119 11716 ft 301 kts 53°
2026-04-22 12:26 -8.65477 115.59979 11243 ft 300 kts 66°
2026-04-22 12:26 -8.64656 115.61922 10976 ft 304 kts 65°
2026-04-22 12:26 -8.63741 115.63879 11168 ft 313 kts 63°
2026-04-22 12:27 -8.63230 115.64902 11488 ft 318 kts 62°
2026-04-22 12:27 -8.62468 115.66393 12266 ft 320 kts 62°
2026-04-22 12:27 -8.62297 115.66725 12457 ft 320 kts 62°
2026-04-22 12:27 -8.61363 115.68542 13394 ft 324 kts 62°
2026-04-22 12:28 -8.60951 115.69348 13755 ft 327 kts 62°
2026-04-22 12:28 -8.60841 115.69563 13847 ft 328 kts 62°
2026-04-22 12:28 -8.59779 115.71644 14554 ft 340 kts 62°
2026-04-22 12:28 -8.58695 115.73775 14837 ft 338 kts 62°
2026-04-22 12:29 -8.57622 115.75887 14987 ft 338 kts 62°
2026-04-22 12:29 -8.56544 115.78007 15009 ft 338 kts 62°
2026-04-22 12:29 -8.55469 115.80120 14998 ft 338 kts 62°
2026-04-22 12:29 -8.54378 115.82257 15213 ft 345 kts 61°
2026-04-22 12:30 -8.50951 115.85528 17319 ft 340 kts 32°
2026-04-22 12:30 -8.48968 115.86818 18144 ft 349 kts 34°
2026-04-22 12:30 -8.46975 115.88279 18977 ft 355 kts 37°
2026-04-22 12:31 -8.45024 115.89833 19919 ft 358 kts 38°
2026-04-22 12:31 -8.43067 115.91424 20687 ft 365 kts 38°
2026-04-22 12:31 -8.41070 115.93031 21489 ft 369 kts 38°
2026-04-22 12:31 -8.39045 115.94642 22274 ft 373 kts 38°
2026-04-22 12:32 -8.36984 115.96275 23000 ft 378 kts 38°
2026-04-22 12:32 -8.32784 115.99602 24435 ft 387 kts 38°
2026-04-22 12:32 -8.30682 116.01271 25098 ft 392 kts 38°
2026-04-22 12:33 -8.28531 116.02978 25762 ft 396 kts 38°
2026-04-22 12:33 -8.26350 116.04709 26405 ft 400 kts 38°
2026-04-22 12:33 -8.24161 116.06447 27082 ft 402 kts 38°
2026-04-22 12:33 -8.21944 116.08206 27713 ft 406 kts 38°
2026-04-22 12:34 -8.19711 116.09980 28227 ft 412 kts 38°
2026-04-22 12:34 -8.17558 116.11700 28774 ft 415 kts 38°
2026-04-22 12:34 -8.15257 116.13520 29066 ft 427 kts 38°
2026-04-22 12:34 -8.12870 116.15403 29400 ft 436 kts 38°
2026-04-22 12:35 -8.10528 116.17278 30220 ft 433 kts 38°
2026-04-22 12:35 -8.08232 116.19080 30776 ft 437 kts 38°
2026-04-22 12:35 -8.05806 116.20950 31259 ft 441 kts 38°
2026-04-22 12:35 -8.03465 116.22952 31920 ft 439 kts 42°
2026-04-22 12:36 -8.01101 116.24888 32578 ft 438 kts 38°
2026-04-22 12:36 -7.98660 116.26731 33180 ft 438 kts 39°
2026-04-22 12:36 -7.96225 116.28588 33708 ft 439 kts 38°
2026-04-22 12:36 -7.93799 116.30478 34251 ft 439 kts 39°
2026-04-22 12:37 -7.91413 116.32412 34581 ft 443 kts 38°
2026-04-22 12:37 -7.88955 116.34242 34803 ft 441 kts 38°
2026-04-22 12:37 -7.86546 116.36164 34909 ft 440 kts 40°
2026-04-22 12:37 -7.84165 116.38117 34923 ft 444 kts 40°
2026-04-22 12:38 -7.79264 116.42073 34917 ft 456 kts 39°
2026-04-22 12:38 -7.74246 116.46034 34909 ft 456 kts 39°
2026-04-22 12:39 -7.66868 116.51866 34911 ft 452 kts 39°
2026-04-22 12:40 -7.61907 116.55772 34911 ft 452 kts 39°
2026-04-22 12:40 -7.56963 116.59703 34912 ft 453 kts 39°
2026-04-22 12:41 -7.52053 116.63687 34909 ft 453 kts 42°
2026-04-22 12:41 -7.47716 116.68270 34900 ft 451 kts 52°
2026-04-22 12:42 -7.43895 116.73284 34932 ft 450 kts 54°
2026-04-22 12:42 -7.40103 116.78292 35040 ft 450 kts 52°
2026-04-22 12:43 -7.36051 116.83128 35164 ft 452 kts 49°
2026-04-22 12:43 -7.31748 116.87695 35304 ft 452 kts 45°
2026-04-22 12:44 -7.27168 116.92063 35249 ft 454 kts 46°
2026-04-22 12:44 -7.25176 116.94523 35003 ft 451 kts 57°
2026-04-22 12:44 -7.23463 116.97143 34904 ft 448 kts 56°
2026-04-22 12:45 -7.19679 117.02097 34906 ft 452 kts 50°
2026-04-22 12:45 -7.15496 117.06896 34902 ft 452 kts 49°
2026-04-22 12:46 -7.11399 117.11696 34901 ft 451 kts 50°
2026-04-22 12:46 -7.07390 117.16498 34903 ft 451 kts 50°
2026-04-22 12:47 -7.03332 117.21330 34903 ft 451 kts 50°
2026-04-22 12:47 -6.99264 117.26158 34902 ft 451 kts 50°
2026-04-22 12:48 -6.95196 117.30970 34903 ft 451 kts 50°
2026-04-22 12:48 -6.91139 117.35804 34901 ft 451 kts 50°
2026-04-22 12:49 -6.87114 117.40586 34921 ft 450 kts 50°
2026-04-22 12:49 -6.83064 117.45397 34920 ft 451 kts 50°
2026-04-22 12:50 -6.79004 117.50225 34921 ft 451 kts 50°
2026-04-22 12:50 -6.74932 117.55058 34920 ft 452 kts 50°
2026-04-22 12:51 -6.70870 117.59880 34909 ft 452 kts 50°
2026-04-22 12:51 -6.66613 117.64529 34912 ft 451 kts 45°
2026-04-22 12:52 -6.61968 117.68762 34912 ft 450 kts 42°
2026-04-22 12:52 -6.57304 117.72980 34912 ft 450 kts 43°
2026-04-22 12:53 -6.52734 117.77230 34911 ft 450 kts 44°
2026-04-22 12:53 -6.48125 117.81504 34911 ft 451 kts 43°
2026-04-22 12:54 -6.43515 117.85773 34911 ft 451 kts 43°
2026-04-22 12:54 -6.38891 117.90040 34912 ft 450 kts 43°
2026-04-22 12:55 -6.35057 117.93588 34911 ft 450 kts 43°
2026-04-22 12:55 -6.29660 117.98576 34902 ft 451 kts 43°
2026-04-22 12:56 -6.25076 118.02814 34903 ft 451 kts 43°
2026-04-22 12:56 -6.20448 118.07096 34903 ft 451 kts 43°
2026-04-22 12:57 -6.15835 118.11359 34902 ft 451 kts 43°
2026-04-22 12:57 -6.11216 118.15629 34902 ft 451 kts 44°
2026-04-22 12:58 -6.06606 118.19900 34901 ft 450 kts 43°
2026-04-22 12:58 -6.01994 118.24151 34901 ft 450 kts 43°
2026-04-22 12:58 -5.99686 118.26281 34794 ft 452 kts 43°
2026-04-22 12:59 -5.97408 118.28400 34432 ft 451 kts 43°
2026-04-22 12:59 -5.95109 118.30525 34055 ft 446 kts 43°
2026-04-22 12:59 -5.92826 118.32650 33689 ft 446 kts 43°
2026-04-22 12:59 -5.90602 118.34818 33315 ft 446 kts 45°
2026-04-22 13:00 -5.88343 118.36952 32946 ft 447 kts 43°
2026-04-22 13:00 -5.86001 118.39027 32579 ft 447 kts 42°
2026-04-22 13:00 -5.83671 118.41092 32208 ft 448 kts 43°
2026-04-22 13:00 -5.82132 118.42482 31962 ft 448 kts 43°
2026-04-22 13:01 -5.79068 118.45307 31580 ft 445 kts 44°
2026-04-22 13:01 -5.77571 118.46699 31466 ft 439 kts 44°
2026-04-22 13:01 -5.75344 118.48766 31117 ft 432 kts 44°
2026-04-22 13:01 -5.72437 118.51458 30446 ft 426 kts 43°
2026-04-22 13:02 -5.70261 118.53466 29930 ft 426 kts 43°
2026-04-22 13:02 -5.68794 118.54821 29648 ft 424 kts 44°
2026-04-22 13:02 -5.66605 118.56848 29278 ft 426 kts 44°
2026-04-22 13:02 -5.64449 118.58839 28862 ft 428 kts 43°
2026-04-22 13:03 -5.62265 118.60852 28419 ft 421 kts 43°
2026-04-22 13:03 -5.60136 118.62820 27891 ft 412 kts 44°
2026-04-22 13:03 -5.58043 118.64750 27364 ft 404 kts 43°
2026-04-22 13:03 -5.55993 118.66639 26820 ft 396 kts 43°
2026-04-22 13:04 -5.53980 118.68495 26197 ft 392 kts 43°
2026-04-22 13:04 -5.51982 118.70339 25535 ft 388 kts 44°
2026-04-22 13:04 -5.49999 118.72171 24850 ft 386 kts 44°
2026-04-22 13:04 -5.48029 118.73992 24124 ft 384 kts 43°
2026-04-22 13:05 -5.46062 118.75806 23388 ft 382 kts 43°
2026-04-22 13:05 -5.44110 118.77606 22667 ft 380 kts 43°
2026-04-22 13:05 -5.42168 118.79386 21946 ft 377 kts 43°
2026-04-22 13:05 -5.40232 118.81151 21244 ft 374 kts 43°
2026-04-22 13:06 -5.38357 118.82901 20491 ft 361 kts 43°
2026-04-22 13:06 -5.36538 118.84592 19775 ft 352 kts 43°
2026-04-22 13:06 -5.34755 118.86241 19081 ft 344 kts 43°
2026-04-22 13:06 -5.33019 118.87842 18407 ft 336 kts 43°
2026-04-22 13:07 -5.31324 118.89439 17781 ft 333 kts 45°
2026-04-22 13:07 -5.29908 118.91257 17163 ft 332 kts 62°
2026-04-22 13:07 -5.29248 118.93434 16589 ft 331 kts 82°
2026-04-22 13:07 -5.29205 118.95734 16045 ft 331 kts 90°
2026-04-22 13:08 -5.29313 118.98044 15451 ft 330 kts 91°
2026-04-22 13:08 -5.29381 119.00340 14854 ft 328 kts 89°
2026-04-22 13:08 -5.29395 119.02625 14253 ft 326 kts 88°
2026-04-22 13:08 -5.29378 119.04882 13665 ft 323 kts 89°
2026-04-22 13:09 -5.29408 119.07124 13060 ft 320 kts 87°
2026-04-22 13:09 -5.29340 119.09348 12461 ft 318 kts 88°
2026-04-22 13:09 -5.29361 119.11560 11859 ft 316 kts 89°
2026-04-22 13:09 -5.29390 119.13757 11256 ft 314 kts 89°
2026-04-22 13:10 -5.29388 119.15923 10650 ft 307 kts 89°
2026-04-22 13:10 -5.29384 119.18031 10170 ft 297 kts 89°
2026-04-22 13:10 -5.29382 119.20074 9701 ft 289 kts 89°
2026-04-22 13:10 -5.29381 119.22043 9244 ft 281 kts 89°
2026-04-22 13:11 -5.29363 119.23989 8792 ft 279 kts 90°
2026-04-22 13:11 -5.29361 119.25963 8356 ft 283 kts 89°
2026-04-22 13:11 -5.29386 119.27929 7905 ft 282 kts 90°
2026-04-22 13:11 -5.29391 119.29892 7447 ft 281 kts 89°
2026-04-22 13:12 -5.29387 119.31848 6981 ft 280 kts 89°
2026-04-22 13:12 -5.29383 119.33800 6493 ft 278 kts 89°
2026-04-22 13:12 -5.29382 119.35709 5985 ft 271 kts 89°
2026-04-22 13:12 -5.29379 119.37583 5478 ft 266 kts 89°
2026-04-22 13:13 -5.29381 119.39420 4978 ft 262 kts 90°
2026-04-22 13:13 -5.29302 119.41225 4591 ft 256 kts 81°
2026-04-22 13:13 -5.28694 119.42857 4317 ft 246 kts 58°
2026-04-22 13:13 -5.27519 119.44044 4054 ft 236 kts 31°
2026-04-22 13:14 -5.26084 119.44708 3867 ft 226 kts 24°
2026-04-22 13:14 -5.24667 119.45392 3545 ft 227 kts 30°
2026-04-22 13:14 -5.23309 119.46208 3221 ft 225 kts 33°
2026-04-22 13:14 -5.22006 119.47003 2934 ft 211 kts 32°
2026-04-22 13:15 -5.20785 119.47698 2670 ft 195 kts 32°
2026-04-22 13:15 -5.19663 119.48355 2388 ft 177 kts 32°
2026-04-22 13:15 -5.18658 119.48945 2162 ft 158 kts 32°
2026-04-22 13:15 -5.17756 119.49464 1951 ft 142 kts 32°
2026-04-22 13:16 -5.16921 119.49941 1772 ft 136 kts 32°
2026-04-22 13:16 -5.16080 119.50428 1648 ft 141 kts 33°
2026-04-22 13:16 -5.15241 119.50934 1417 ft 140 kts 32°
2026-04-22 13:16 -5.14411 119.51405 1250 ft 139 kts 31°
2026-04-22 13:17 -5.13580 119.51885 1058 ft 139 kts 31°
2026-04-22 13:17 -5.12742 119.52368 844 ft 135 kts 32°
2026-04-22 13:17 -5.11934 119.52854 675 ft 138 kts 32°
2026-04-22 13:17 -5.11081 119.53344 493 ft 143 kts 31°
2026-04-22 13:18 -5.10208 119.53840 303 ft 144 kts 31°
2026-04-22 13:18 -5.09331 119.54345 94 ft 145 kts 31°
2026-04-22 13:18 -5.08517 119.54819 39 ft 112 kts 32°
2026-04-22 13:18 -5.08083 119.55066 40 ft 46 kts 31°
2026-04-22 13:19 -5.07837 119.55207 42 ft 31 kts 29°
2026-04-22 13:19 -5.07723 119.55242 42 ft 8 kts 329°
2026-04-22 13:19 -5.07683 119.55194 41 ft 10 kts 300°
2026-04-22 13:19 -5.07654 119.55144 41 ft 8 kts 300°
2026-04-22 13:20 -5.07624 119.55092 40 ft 9 kts 300°
2026-04-22 13:20 -5.07594 119.55038 41 ft 9 kts 300°
2026-04-22 13:20 -5.07585 119.54984 41 ft 8 kts 245°
2026-04-22 13:20 -5.07626 119.54949 40 ft 8 kts 215°
2026-04-22 13:21 -5.07673 119.54921 41 ft 8 kts 210°
2026-04-22 13:21 -5.07715 119.54889 41 ft 8 kts 228°
2026-04-22 13:21 -5.07751 119.54852 41 ft 7 kts 226°
2026-04-22 13:21 -5.07782 119.54815 40 ft 7 kts 232°
2026-04-22 13:22 -5.07817 119.54786 40 ft 7 kts 210°
2026-04-22 13:22 -5.07857 119.54763 41 ft 7 kts 210°
2026-04-22 13:22 -5.07898 119.54738 40 ft 6 kts 218°
2026-04-22 13:22 -5.07902 119.54721 41 ft 1 kts 305°
2026-04-22 13:23 -5.07883 119.54706 41 ft 5 kts 314°
2026-04-22 13:23 -5.07864 119.54675 41 ft 0 kts 300°